Location: Bosdarros
(43.2167°N, 0.3667°W)
Time: 15:36:45
(UTC+00:00)

Cosmos 1553 Rocket - Pass Details

Date: 22 April 2021
Orbit: 942 x 1007 km, 82.9° (Epoch: 12 May)

Event Time Altitude Azimuth Distance (km) Brightness Sun altitude
Exits shadow 22:33:02 58° 265° (W) 1,092 4.2 -30.8°
Maximum altitude 22:33:24 59° 281° (W) 1,082 4.3 -30.9°
Drops below altitude 10° 22:39:26 10° 1° (N) 2,681 7.0 -31.3°
Sets 22:42:00 0° 5° (N) 3,637 7.9 -31.5°
